Skip Page Navigation
NASA JPL Caltech
NASA Logo - Jet Propulsion Laboratory + View the NASA Portal
+ Center for Near-Earth Object Studies
JPL Home Earth Solar System Stars & Galaxies Technology
JPL Solar System Dynamics
BODIES ORBITS EPHEMERIDES TOOLS PHYSICAL DATA DISCOVERY FAQ SITE MAP
IMPORTANT: The SSD Announcement email list is now available. Major changes are coming in the near future, including possible hostname and/or URL changes. To be notified of such changes, subscribe to this email list.

Please visit this page for more details.


JPL Small-Body Database Browser
Search: [ help ]  
382534 (2001 TM147)
Classification: Main-belt Asteroid          SPK-ID: 2382534
Ephemeris | Orbit Diagram | Orbital Elements | Mission Design | Physical Parameters | Discovery Circumstances ]

[ show orbit diagram ]
Orbital Elements at Epoch 2458600.5 (2019-Apr-27.0) TDB
Reference: JPL 13 (heliocentric ecliptic J2000)
 Element Value Uncertainty (1-sigma)   Units 
e .1770917301590294 6.1737e-08  
a 2.441155075372907 1.664e-08 au
q 2.008846699488623 1.5768e-07 au
i 5.47057101029009 5.8828e-06 deg
node 149.5603841313946 5.1521e-05 deg
peri 203.6882863777903 5.3647e-05 deg
M 234.8756617449662 1.6622e-05 deg
tp 2459084.706676337153
(2020-Aug-23.20667634)
6.7457e-05 TDB
period 1393.129473548784
3.81
1.4244e-05
3.9e-08
d
yr
n .2584110140767858 2.6422e-09 deg/d
Q 2.873463451257191 1.9587e-08 au
  Orbit Determination Parameters
   # obs. used (total)      159  
   data-arc span      6462 days (17.69 yr)  
   first obs. used      2001-09-17  
   last obs. used      2019-05-28  
   planetary ephem.      DE431  
   SB-pert. ephem.      SB431-N16  
   condition code      0  
   norm. resid. RMS      .64387  
   source      ORB  
   producer      Otto Matic  
   solution date      2019-Sep-24 06:59:40  

Additional Information
 Earth MOID = 1.00378 au 
 Jupiter MOID = 2.5558 au 
 T_jup = 3.474 
[ show covariance matrix ]

Ephemeris | Orbit Diagram | Orbital Elements | Mission Design | Physical Parameters | Discovery Circumstances ]

Physical Parameter Table
Parameter Symbol Value Units Sigma Reference Notes
absolute magnitude H 17.0   n/a MPO437565  

382534 (2001 TM147)          Discovered 2001-Oct-10 by NEAT at Palomar
Reference: Last Updated: 2014-01-21
Ephemeris | Orbit Diagram | Orbital Elements | Mission Design | Physical Parameters | Discovery Circumstances ]
ABOUT SSD CREDITS/AWARDS PRIVACY/COPYRIGHT GLOSSARY LINKS
FirstGov
(server date/time)  
NASA Home Page
Site Manager:   Ryan S. Park
Webmaster  Alan B. Chamberlin